2024-029A

Last updated on Fri Feb 16 2024 00:02:04 GMT+0000 (Coordinated Universal Time)

1 58961U 24029A 24046.78342324 .00187622 24125-4 56393-3 0 9998 2 58961 51.6424 202.3954 0027739 353.4344 147.9267 15.91195987 104

Satellite not in orbit